Location: Champs
(48.8539°N, 2.6040°E)
Time: 04:44:04
(UTC+00:00)

Cosmos 2219 Rocket - Pass Details

Date: 26 October 2021
Orbit: 827 x 848 km, 71.0° (Epoch: 30 November)

Event Time Altitude Azimuth Distance (km) Brightness Sun altitude
Exits shadow 04:28:35 - 331° (NNW) 2,649 4.5 -20.0°
Reaches altitude 10° 04:29:03 10° 331° (NNW) 2,468 4.4 -20.0°
Maximum altitude 04:34:44 84° 245° (WSW) 855 2.1 -19.0°
Drops below altitude 10° 04:40:24 10° 157° (SSE) 2,463 4.9 -18.1°
Sets 04:42:50 0° 156° (SSE) 3,396 5.7 -17.7°
